Regional Weather Roundup
Issued by NWS

Home | Current Version | Previous Version | Text Only | Print | Product List | Glossary Off
Versions: 1 2 3 4 5 6 7 8 9 10 11 12 13 14 15 16 17 18 19 20 21 22 23 24 25 26 27

000
ASUS45 KTFX 232010
RWRMT
MONTANA REGIONAL WEATHER ROUNDUP
NATIONAL WEATHER SERVICE GREAT FALLS MT
200 PM MDT SAT JUL 23 2016

NOTE: "FAIR" INDICATES FEW OR NO CLOUDS BELOW 12000 FEET WITH NO
SIGNIFICANT WEATHER AND/OR OBSTRUCTIONS TO VISIBILITY.

MTZ001>007-043-232100-
WEST OF THE DIVIDE

CITY           SKY/WX    TMP DP  RH WIND       PRES   REMARKS
KALISPELL      MOSUNNY   76  48  37 S9G20     30.11F
MISSOULA       PTSUNNY   76  44  32 MISG      30.15F
BUTTE          SUNNY     70  34  26 NW8G16    30.19F
MULLAN PASS    MOSUNNY   57  45  64 VRB7      30.28S
ANACONDA         N/A     70  39  32 N6        30.16F
DEER LODGE       N/A     70  41  35 NE8       30.18F
EUREKA           N/A     75  45  33 CALM      30.10S
HAMILTON         N/A     72  41  33 N6        30.15S
LIBBY            N/A     72  45  37 N7        30.14S
RONAN            N/A     74  45  35 SE6       30.18S
$$

MTZ008-052>055-232100-
SOUTHWEST MONTANA

CITY           SKY/WX    TMP DP  RH WIND       PRES   REMARKS
BOZEMAN        SUNNY     74  38  27 VRB5      30.14F
DILLON         SUNNY     74  36  25 SW6       30.14F
W YELLOWSTONE  MOSUNNY   72  32  23 SW20      30.24F
ENNIS          SUNNY     77  32  19 W12       30.20F
THREE FORKS      N/A     77  77 100 W2        30.10F
TWIN BRIDGES     N/A     75  28  17 SW6       30.13F
$$

MTZ009-010-012-014-046-048-049-054-232100-
EAST SLOPES AND CENTRAL MONTANA

CITY           SKY/WX    TMP DP  RH WIND       PRES   REMARKS
CUT BANK       MOSUNNY   76  40  27 W12G23    30.06F
GREAT FALLS    PTSUNNY   76  39  26 W9        30.07F
MALMSTROM AFB  MOSUNNY   77  42  27 W13G18    30.07F
HELENA         MOSUNNY   77  39  25 MISG      30.10F
CHOTEAU          N/A     77  39  25 W10G16    30.09F
$$

MTZ011-013-016-021-045-047-050-051-232100-
NORTH CENTRAL MONTANA

CITY           SKY/WX    TMP DP  RH WIND       PRES   REMARKS
HAVRE          MOSUNNY   79  49  34 NW18G29   29.98S
LEWISTOWN      MOSUNNY   74  46  36 W18G28    30.09S
N BAR RANCH      N/A     73  45  35 NW22G30   30.10F
CHINOOK          N/A     79  52  38 W16G25    29.96R
$$

MTZ017>020-022>027-061-062-232100-
NORTHEAST MONTANA

CITY           SKY/WX    TMP DP  RH WIND       PRES   REMARKS
GLASGOW        SUNNY     79  50  36 W25G33    29.89R
JORDAN           N/A     84  44  24 NW23G31   29.94S
SIDNEY         SUNNY     83  49  30 W18G28    29.84F
WOLF POINT     SUNNY     82  49  31 W22G31    29.86S
PLENTYWOOD       N/A     77  52  41 W23G31    29.82S
POPLAR           N/A     79  48  34 W23G29    29.85S
$$

MTZ028>42-056>058-232100-
SOUTHCENTRAL AND SOUTHEAST MONTANA

CITY           SKY/WX    TMP DP  RH WIND       PRES   REMARKS
BAKER          SUNNY     82  42  24 NW24G31   29.95S
BILLINGS       MOSUNNY   83  34  17 NW17G24   30.04S
LIVINGSTON     SUNNY     80  31  16 W14G26    30.10F
MILES CITY     MOSUNNY   86  39  19 W29G35    29.94F
FORSYTH          N/A     82  39  21 W20G26    29.97S
LAUREL           N/A     84  34  16 NW13      30.03S
ROUNDUP          N/A     78  41  26 NW2       29.96S
$$

REGIONAL REPORTS...DAKOTAS

CITY           SKY/WX    TMP DP  RH WIND       PRES   REMARKS
WILLISTON      SUNNY     82  49  31 W28G36    29.82F
MINOT          MOSUNNY   84  62  47 W17G24    29.76F
DICKINSON      SUNNY     80  45  28 NW17G30   29.87F
BEACH            N/A     81  41  24 W17G35    29.94S
CROSBY           N/A     75  55  50 W18G25    29.80F
WATFORD CITY     N/A    N/A N/A N/A MISG        N/A
BISMARCK       MOSUNNY   81  66  60 NW15G24   29.80R
GRAND FORKS    CLOUDY    73  67  81 E14       29.68F
FARGO          CLOUDY    81  70  69 S14G20    29.73F
BUFFALO SD       N/A     88  41  19 NW22G28   29.88S
RAPID CITY     SUNNY     88  43  20 N25G37    29.93F
$$

REGIONAL REPORTS...WYOMING/IDAHO/WASHINGTON

CITY           SKY/WX    TMP DP  RH WIND       PRES   REMARKS
GILLETTE       SUNNY     83  40  21 W8        30.04F
SHERIDAN       SUNNY     86  41  20 N15       30.05F
BUFFALO WY     SUNNY     80  40  23 VRB7      30.11F
CODY           SUNNY     81  39  22 N6        30.09S
YELLOWSTONE LA   N/A     69  28  21 W8        30.32F
IDAHO FALLS    SUNNY     81  37  20 S18       30.16F
SALMON         SUNNY     75  41  29 NW8       30.09F
BOISE          SUNNY     79  34  19 NW10      30.14F
SPOKANE        MOSUNNY   73  42  32 SW12      30.17F
$$

REGIONAL REPORTS...ALBERTA

CITY           SKY/WX    TMP DP  RH WIND       PRES   REMARKS
EDMONTON       MOSUNNY   68  48  49 W14G21    29.92S
CALGARY        PTSUNNY   72  52  49 SE10      29.98F
LETHBRIDGE     MOSUNNY   75  45  33 W6G29     30.01S
MEDICINE HAT   PTSUNNY   73  52  46 NW6       29.97F
WATERTON GATE    N/A     70  45  40 SW16G25     N/A
CARDSTON         N/A     73  43  33 W13G20      N/A
MILK RIVER       N/A     77  43  29 W10G17      N/A
$$

REGIONAL REPORTS...SASKATCHEWAN

CITY           SKY/WX    TMP DP  RH WIND       PRES   REMARKS
SWIFT CURRENT  PTSUNNY   64  57  77 NW15G24   29.91R
REGINA         PTSUNNY   70  59  68 W23G32    29.74R
SASKATOON      TSTM      64  59  82 NW17G36   29.78R
CYPRESS HILLS    N/A     63  52  67 NW9G17      N/A
VAL MARIE        N/A     73  52  46 NW21G32     N/A
ROCKGLEN         N/A     70  54  56 NW18G29     N/A
ASSINIBOIA       N/A     66  50  55 W13         N/A
$$




USA.gov is the U.S. government's official web portal to all federal, state and local government web resources and services.